Terminal Aerodrome Forecast
Issued by NWS

Home | Current Version | Previous Version | Text Only | Print | Product List | Glossary On
Versions: 1 2 3 4 5 6 7 8 9 10 11 12 13 14 15 16 17 18
000
FTUS46 KSEW 281503 AAA
TAFBFI
TAF AMD
KBFI 281503Z 2815/2912 15011KT P6SM SCT015 SCT024 OVC030
      TEMPO 2815/2819 4SM -DZ BR BKN015 OVC024
     FM281900 17010KT P6SM -RA BKN030 OVC050
     FM282200 18012G20KT P6SM VCSH BKN035 OVC050
     FM290400 16005KT P6SM OVC035=

USA.gov is the U.S. government's official web portal to all federal, state and local government web resources and services.